Home   Weather   Santa Rosa   Past weeks

Flag for USA Past Weather in Santa Rosa, California, USA — Yesterday and Last 2 Weeks

Now
74 °F

Sunny.


Feels Like: 77 °F
Forecast: 50 / 74 °F
Wind: 13 mph from Southeast

Location: Santa Rosa Sonoma County Airport

Current Time: May 28, 2017 at 5:18:14 pm

Latest Report: May 28, 2017 at 3:53 pm


Visibility: 10 mi

Pressure: 29.99 "Hg

Humidity: 53%

Dew Point: 56 °F

Location of Santa RosaLocation

Past Weather in Santa Rosa — Graph

°F

Santa Rosa Temperature Yesterday

Maximum temperature yesterday: 71 °F (at 2:53 pm)
Minimum temperature yesterday: 45 °F (at 4:06 am)
Average temperature yesterday: 56 °F

High & Low Weather Summary for the Past Weeks

 TemperatureHumidityPressure
High89 °F (May 20, 2:53 pm)100% (May 22, 2:53 am)30.10 "Hg (May 22, 2:53 am)
Low41 °F (May 14, 4:53 am)21% (May 18, 1:53 pm)29.70 "Hg (May 25, 1:53 am)
Average59 °F71%29.91 "Hg
* Reported May 13 3:53 pm — May 28 3:53 pm, Santa Rosa. Weather by CustomWeather, © 2017

Note: Actual official high and low records may vary slightly from our data, if they occured in-between our weather recording intervals... More about our weather records

Advertising

Santa Rosa Weather History for the Previous 24 Hours

Scroll right to see more
 ConditionsComfort  
Time TempWeatherWind HumidityBarometerVisibility
3:53 pm
Sun, May 28
74 °FSunny.13 mph53%29.99 "Hg10 mi
2:53 pm74 °FSunny.9 mph52%30.01 "Hg10 mi
1:53 pm71 °FSunny.10 mph59%30.02 "Hg10 mi
12:53 pm70 °FSunny.8 mph59%30.03 "Hg10 mi
11:53 am63 °FPassing clouds.7 mph70%30.04 "Hg10 mi
10:53 am60 °FScattered clouds.6 mph75%30.05 "Hg10 mi
10:25 am58 °FPartly sunny.No wind81%30.08 "Hg7 mi
9:53 am56 °FLow clouds.No wind87%30.07 "Hg7 mi
8:53 am55 °FFog.No wind87%30.07 "Hg5 mi
7:53 am53 °FFog.No wind96%30.06 "Hg2 mi
6:53 am53 °FFog.No wind93%30.05 "Hg2 mi
6:04 am52 °FFog.No wind97%30.06 "Hg4 mi
4:53 am53 °FLow clouds.No wind93%30.03 "Hg8 mi
4:23 am52 °FLow clouds.3 mph97%30.05 "Hg7 mi
3:53 am53 °FLow clouds.No wind93%30.03 "Hg9 mi
2:53 am53 °FLow clouds.No wind93%30.04 "Hg10 mi
1:53 am53 °FLow clouds.No wind93%30.05 "Hg10 mi
1:08 am51 °FPassing clouds.No wind96%30.08 "Hg10 mi
12:53 am51 °FPassing clouds.No wind96%30.06 "Hg10 mi
11:53 pm
Sat, May 27
52 °FClear.3 mph93%30.06 "Hg10 mi
10:53 pm53 °FClear.No wind89%30.06 "Hg10 mi
9:53 pm54 °FClear.7 mph90%30.06 "Hg10 mi
8:53 pm56 °FClear.8 mph84%30.04 "Hg10 mi
7:53 pm60 °FSunny.9 mph75%30.03 "Hg10 mi
6:53 pm64 °FPassing clouds.12 mph65%30.02 "Hg10 mi
5:53 pm67 °FPassing clouds.12 mph59%30.03 "Hg10 mi
Weather by CustomWeather, © 2017

See weather overviewHow to use our weather pages